This is the latest recevied weather packets stored in our database for station/object KN4AN. If no packets are shown the sender has not sent any weather packets the latest 10 day(s).
| Time | Temp. | Humidity | Pressure | Rain* | Wind** | Luminosity | Snow |
|---|---|---|---|---|---|---|---|
| 1788549854 | 36.11° C | 40% | 1014.1 hPa | 0 mm | - | 287 W/m² | - |
| 1788549551 | 36.67° C | 39% | 1014.3 hPa | 0 mm | - | 131 W/m² | - |
| 1788549246 | 37.22° C | 36% | 1014.1 hPa | 0 mm | - | 203 W/m² | - |
| 1788548943 | 37.78° C | 36% | 1014.3 hPa | 0 mm | - | 133 W/m² | - |
| 1788548638 | 39.44° C | 34% | 1014.4 hPa | 0 mm | - | 237 W/m² | - |
| 1788548335 | 38.89° C | 35% | 1014.3 hPa | 0 mm | - | 653 W/m² | - |
| 1788548030 | 39.44° C | 34% | 1014.3 hPa | 0 mm | - | 668 W/m² | - |
| 1788547729 | 38.89° C | 35% | 1014.6 hPa | 0 mm | - | 688 W/m² | - |
| 1788547424 | 38.33° C | 36% | 1014.6 hPa | 0 mm | - | 695 W/m² | - |
| 1788547120 | 38.33° C | 37% | 1014.6 hPa | 0 mm | - | 669 W/m² | - |
| 1788546815 | 38.33° C | 37% | 1014.8 hPa | 0 mm | - | 699 W/m² | - |
| 1788546510 | 37.78° C | 38% | 1014.9 hPa | 0 mm | - | 706 W/m² | - |
| 1788546205 | 37.78° C | 37% | 1014.7 hPa | 0 mm | - | 726 W/m² | - |
| 1788545901 | 38.33° C | 38% | 1014.7 hPa | 0 mm | - | 707 W/m² | - |
| 1788545601 | 37.78° C | 39% | 1015 hPa | 0 mm | - | 702 W/m² | - |
| 1788545296 | 37.22° C | 39% | 1015.2 hPa | 0 mm | - | 728 W/m² | - |
| 1788544991 | 37.78° C | 39% | 1015.1 hPa | 0 mm | - | 189 W/m² | - |
| 1788544690 | 37.78° C | 39% | 1015.3 hPa | 0 mm | - | 568 W/m² | - |
| 1788544389 | 37.78° C | 37% | 1015.2 hPa | 0 mm | - | 739 W/m² | - |
| 1788544089 | 38.33° C | 37% | 1015.3 hPa | 0 mm | - | 764 W/m² | - |
| 1788543785 | 37.78° C | 39% | 1015.3 hPa | 0 mm | - | 762 W/m² | - |
| 1788543481 | 37.78° C | 37% | 1015.3 hPa | 0 mm | - | 752 W/m² | - |
| 1788543176 | 37.78° C | 38% | 1015.3 hPa | 0 mm | - | 734 W/m² | - |
| 1788542872 | 37.78° C | 37% | 1015.5 hPa | 0 mm | - | 245 W/m² | - |
| 1788542570 | 37.22° C | 40% | 1015.5 hPa | 0 mm | - | 738 W/m² | - |
* Rain latest hour (hover to see other rain measurements)
** Current wind speed in m/s (hover to see current wind gust speed)